TimeCST,TemperatureF,Dew PointF,Humidity,Sea Level PressureIn,VisibilityMPH,Wind Direction,Wind SpeedMPH,Gust SpeedMPH,PrecipitationIn,Events,Conditions,WindDirDegrees,DateUTC
12:15 AM,21.2,15.8,80,30.19,9.0,Calm,Calm,-,N/A,,Clear,0,2013-01-16 06:15:00
12:55 AM,21.2,15.8,80,30.18,7.0,Calm,Calm,-,N/A,,Clear,0,2013-01-16 06:55:00
1:15 AM,19.4,14.0,80,30.19,5.0,NNW,3.5,-,N/A,,Clear,330,2013-01-16 07:15:00
1:55 AM,19.4,14.0,80,30.18,7.0,North,3.5,-,N/A,,Clear,10,2013-01-16 07:55:00
2:15 AM,17.6,12.2,79,30.17,8.0,North,5.8,-,N/A,,Clear,360,2013-01-16 08:15:00
2:35 AM,17.6,10.4,73,30.18,8.0,North,4.6,-,N/A,,Clear,360,2013-01-16 08:35:00
3:15 AM,17.6,12.2,79,30.17,8.0,Calm,Calm,-,N/A,,Clear,0,2013-01-16 09:15:00
3:35 AM,17.6,12.2,79,30.17,7.0,Calm,Calm,-,N/A,,Clear,0,2013-01-16 09:35:00
3:55 AM,17.6,12.2,79,30.16,7.0,Calm,Calm,-,N/A,,Clear,0,2013-01-16 09:55:00
4:16 AM,17.6,12.2,79,30.17,7.0,Calm,Calm,-,N/A,,Clear,0,2013-01-16 10:16:00
4:35 AM,17.6,12.2,79,30.17,6.0,Calm,Calm,-,N/A,,Clear,0,2013-01-16 10:35:00
4:55 AM,15.8,8.6,73,30.17,7.0,SE,3.5,-,N/A,,Clear,140,2013-01-16 10:55:00
5:15 AM,15.8,8.6,73,30.16,5.0,Calm,Calm,-,N/A,,Clear,0,2013-01-16 11:15:00
5:35 AM,15.8,10.4,79,30.16,5.0,Calm,Calm,-,N/A,,Clear,0,2013-01-16 11:35:00
5:55 AM,17.6,10.4,73,30.15,3.0,Calm,Calm,-,N/A,,Clear,0,2013-01-16 11:55:00
6:55 AM,15.8,8.6,73,30.17,5.0,Calm,Calm,-,N/A,,Clear,0,2013-01-16 12:55:00
7:15 AM,15.8,10.4,79,30.17,6.0,North,3.5,-,N/A,,Clear,360,2013-01-16 13:15:00
7:35 AM,15.8,8.6,73,30.18,5.0,Calm,Calm,-,N/A,,Clear,0,2013-01-16 13:35:00
7:56 AM,15.8,8.6,73,30.19,6.0,Calm,Calm,-,N/A,,Clear,0,2013-01-16 13:56:00
8:15 AM,17.6,12.2,79,30.19,6.0,Calm,Calm,-,N/A,,Clear,0,2013-01-16 14:15:00
8:35 AM,19.4,14.0,80,30.20,7.0,SSE,3.5,-,N/A,,Clear,150,2013-01-16 14:35:00
8:55 AM,21.2,17.6,86,30.21,7.0,Calm,Calm,-,N/A,,Clear,0,2013-01-16 14:55:00
9:15 AM,23.0,15.8,74,30.21,9.0,South,3.5,-,N/A,,Clear,180,2013-01-16 15:15:00
9:35 AM,26.6,17.6,69,30.21,10.0,SSW,4.6,-,N/A,,Clear,200,2013-01-16 15:35:00
9:55 AM,28.4,17.6,64,30.21,10.0,South,4.6,-,N/A,,Clear,190,2013-01-16 15:55:00
10:15 AM,28.4,15.8,59,30.20,10.0,SSW,5.8,-,N/A,,Clear,210,2013-01-16 16:15:00
10:35 AM,32.0,15.8,51,30.20,10.0,South,4.6,-,N/A,,Clear,190,2013-01-16 16:35:00
10:55 AM,33.8,15.8,48,30.19,10.0,SW,4.6,-,N/A,,Clear,220,2013-01-16 16:55:00
11:35 AM,37.4,15.8,41,30.17,10.0,West,6.9,-,N/A,,Clear,270,2013-01-16 17:35:00
11:55 AM,37.4,17.6,45,30.16,10.0,WNW,6.9,-,N/A,,Clear,290,2013-01-16 17:55:00
12:35 PM,39.2,17.6,42,30.14,10.0,West,8.1,-,N/A,,Clear,280,2013-01-16 18:35:00
12:55 PM,39.2,17.6,42,30.14,10.0,West,9.2,-,N/A,,Clear,260,2013-01-16 18:55:00
1:15 PM,39.2,17.6,42,30.14,10.0,WSW,9.2,-,N/A,,Clear,240,2013-01-16 19:15:00
1:35 PM,41.0,17.6,39,30.13,10.0,WSW,8.1,-,N/A,,Clear,250,2013-01-16 19:35:00
2:15 PM,42.8,19.4,39,30.12,10.0,West,8.1,-,N/A,,Clear,280,2013-01-16 20:15:00
2:35 PM,42.8,19.4,39,30.12,10.0,West,8.1,-,N/A,,Clear,260,2013-01-16 20:35:00
3:55 PM,42.8,17.6,36,30.12,10.0,SSW,8.1,-,N/A,,Clear,210,2013-01-16 21:55:00
4:15 PM,42.8,17.6,36,30.13,10.0,WSW,8.1,-,N/A,,Clear,250,2013-01-16 22:15:00
4:35 PM,41.0,17.6,39,30.13,10.0,SW,5.8,-,N/A,,Clear,230,2013-01-16 22:35:00
4:56 PM,39.2,17.6,42,30.14,10.0,WSW,5.8,-,N/A,,Clear,250,2013-01-16 22:56:00
5:15 PM,37.4,17.6,45,30.14,10.0,West,4.6,-,N/A,,Clear,270,2013-01-16 23:15:00
6:15 PM,35.6,15.8,44,30.15,10.0,Calm,Calm,-,N/A,,Clear,0,2013-01-17 00:15:00
6:35 PM,33.8,15.8,48,30.15,10.0,Calm,Calm,-,N/A,,Clear,0,2013-01-17 00:35:00
6:55 PM,33.8,15.8,48,30.16,10.0,SW,3.5,-,N/A,,Clear,230,2013-01-17 00:55:00
7:35 PM,33.8,15.8,48,30.16,10.0,SW,3.5,-,N/A,,Clear,230,2013-01-17 01:35:00
7:55 PM,33.8,15.8,48,30.16,10.0,SW,3.5,-,N/A,,Clear,220,2013-01-17 01:55:00
8:15 PM,33.8,15.8,48,30.17,10.0,Calm,Calm,-,N/A,,Clear,0,2013-01-17 02:15:00
8:36 PM,33.8,15.8,48,30.18,10.0,SSW,3.5,-,N/A,,Clear,200,2013-01-17 02:36:00
8:55 PM,32.0,14.0,48,30.17,10.0,SSW,3.5,-,N/A,,Clear,200,2013-01-17 02:55:00
9:15 PM,32.0,14.0,48,30.17,10.0,Calm,Calm,-,N/A,,Clear,0,2013-01-17 03:15:00
9:35 PM,30.2,15.8,55,30.17,10.0,Calm,Calm,-,N/A,,Clear,0,2013-01-17 03:35:00
9:55 PM,30.2,15.8,55,30.17,10.0,Calm,Calm,-,N/A,,Clear,0,2013-01-17 03:55:00
10:15 PM,30.2,14.0,51,30.17,-9999.0,Calm,Calm,-,N/A,,Clear,0,2013-01-17 04:15:00
10:55 PM,26.6,14.0,59,30.19,10.0,Calm,Calm,-,N/A,,Clear,0,2013-01-17 04:55:00
11:15 PM,28.4,14.0,55,30.19,10.0,South,3.5,-,N/A,,Clear,190,2013-01-17 05:15:00
11:55 PM,26.6,15.8,64,30.21,10.0,Calm,Calm,-,N/A,,Clear,0,2013-01-17 05:55:00